Terminal Aerodrome Forecast
Issued by NWS

Current Version | Previous Version | Text Only | Print | Product List | Glossary Off
Versions: 1 2 3 4 5 6 7 8 9 10 11 12 13 14 15 16 17 18 19

000
FTUS41 KILN 232327
TAFLUK
TAF
KLUK 232327Z 2400/2424 00000KT P6SM FEW250
     FM240700 00000KT 3SM BR SCT002
     FM240800 00000KT 1SM BR SCT002
      TEMPO 2408/2411 1/4SM FG BKN002
     FM241100 00000KT 3SM BR SCT002
     FM241300 09005KT P6SM SCT250=

USA.gov is the U.S. government's official web portal to all federal, state and local government web resources and services.